E24MSQ-13 Weather Reports


Display with metric or nautical units.
time (UTC)temp
F
wind
direction
speed
MPH
gust
MPH
rain 1hr
in
rain 24hr
in
rain mn
in
humidity
%
barometer
mb
20260508095220 91 0 0.0 0.0 0.00 0.00 0.00 63 1007.0
20260508093655 93 0 0.0 0.0 0.00 0.00 0.00 63 1006.0
20260508092131 93 0 0.0 0.0 0.00 0.00 0.00 65 1006.0
20260508090606 96 0 0.0 0.0 0.00 0.00 0.00 63 1007.0
20260508085042 99 0 0.0 0.0 0.00 0.00 0.00 50 1006.0
20260508083517 101 0 0.0 0.0 0.00 0.00 0.00 47 1006.0
20260508081953 102 0 0.0 0.0 0.00 0.00 0.00 45 1006.0
20260508080428 101 0 0.0 0.0 0.00 0.00 0.00 48 1006.0
20260508074904 101 0 0.0 0.0 0.00 0.00 0.00 46 1006.0
20260508073340 101 0 0.0 0.0 0.00 0.00 0.00 49 1006.0
20260508071815 100 0 0.0 0.0 0.00 0.00 0.00 49 1006.0
20260508070251 100 0 0.0 0.0 0.00 0.00 0.00 50 1007.0
20260508064726 100 0 0.0 0.0 0.00 0.00 0.00 51 1007.0
20260508063202 99 0 0.0 0.0 0.00 0.00 0.00 52 1007.0
20260508061638 99 0 0.0 0.0 0.00 0.00 0.00 50 1008.0
20260508060113 98 0 0.0 0.0 0.00 0.00 0.00 49 1008.0
20260508054549 99 0 0.0 0.0 0.00 0.00 0.00 48 1008.0
20260508053024 98 0 0.0 0.0 0.00 0.00 0.00 48 1009.0
20260508051500 97 0 0.0 0.0 0.00 0.00 0.00 51 1009.0
20260508045936 97 0 0.0 0.0 0.00 0.00 0.00 52 1009.0
20260508044411 97 0 0.0 0.0 0.00 0.00 0.00 54 1010.0
20260508042847 96 0 0.0 0.0 0.00 0.00 0.00 58 1010.0
20260508041322 93 0 0.0 0.0 0.00 0.00 0.00 59 1010.0
20260508035758 94 0 0.0 0.0 0.00 0.00 0.00 60 1010.0
20260508034233 92 0 0.0 0.0 0.00 0.00 0.00 62 1010.0
20260508032709 93 0 0.0 0.0 0.00 0.00 0.00 63 1011.0
20260508031145 92 0 0.0 0.0 0.00 0.00 0.00 67 1011.0
20260508025620 91 0 0.0 0.0 0.00 0.00 0.00 68 1011.0
20260508024056 90 0 0.0 0.0 0.00 0.00 0.00 71 1011.0
20260508022531 90 0 0.0 0.0 0.00 0.00 0.00 71 1011.0
20260508021007 90 0 0.0 0.0 0.00 0.00 0.00 72 1011.0
20260508015442 89 0 0.0 0.0 0.00 0.00 0.00 74 1011.0
20260508013918 88 0 0.0 0.0 0.00 0.00 0.00 75 1010.0
20260508012353 88 0 0.0 0.0 0.00 0.00 0.00 76 1010.0
20260508010829 87 0 0.0 0.0 0.00 0.00 0.00 77 1010.0
20260508005306 87 0 0.0 0.0 0.00 0.00 0.00 78 1010.0
20260508003740 86 0 0.0 0.0 0.00 0.00 0.00 78 1010.0
20260508002215 86 0 0.0 0.0 0.00 0.00 0.00 80 1009.0
20260508000651 85 0 0.0 0.0 0.00 0.00 0.00 81 1009.0
20260507235126 85 0 0.0 0.0 0.00 0.00 0.00 82 1009.0
20260507233602 85 0 0.0 0.0 0.00 0.00 0.00 82 1009.0
20260507232037 84 0 0.0 0.0 0.00 0.00 0.00 82 1009.0
20260507230512 84 0 0.0 0.0 0.00 0.00 0.00 82 1009.0
20260507224948 84 0 0.0 0.0 0.00 0.00 0.00 82 1008.0
20260507223424 84 0 0.0 0.0 0.00 0.00 0.00 82 1008.0
20260507221859 84 0 0.0 0.0 0.00 0.00 0.00 82 1009.0
20260507220335 84 0 0.0 0.0 0.00 0.00 0.00 82 1008.0
20260507214810 84 0 0.0 0.0 0.00 0.00 0.00 81 1008.0
20260507213246 84 0 0.0 0.0 0.00 0.00 0.00 81 1008.0
20260507211721 85 0 0.0 0.0 0.00 0.00 0.00 81 1008.0
20260507210157 84 0 0.0 0.0 0.00 0.00 0.00 81 1008.0
20260507204632 85 0 0.0 0.0 0.00 0.00 0.00 81 1008.0
20260507203107 85 0 0.0 0.0 0.00 0.00 0.00 80 1008.0
20260507201542 85 0 0.0 0.0 0.00 0.00 0.00 80 1008.0
20260507200018 85 0 0.0 0.0 0.00 0.00 0.00 80 1008.0
20260507194453 85 0 0.0 0.0 0.00 0.00 0.00 81 1008.0
20260507192928 85 0 0.0 0.0 0.00 0.00 0.00 80 1008.0
20260507191404 85 0 0.0 0.0 0.00 0.00 0.00 80 1009.0
20260507185840 85 0 0.0 0.0 0.00 0.00 0.00 80 1009.0
20260507184315 85 0 0.0 0.0 0.00 0.00 0.00 80 1009.0
20260507182751 85 0 0.0 0.0 0.00 0.00 0.00 80 1009.0
20260507181226 85 0 0.0 0.0 0.00 0.00 0.00 80 1009.0
20260507175702 85 0 0.0 0.0 0.00 0.00 0.00 79 1009.0
20260507174137 85 0 0.0 0.0 0.00 0.00 0.00 78 1009.0
20260507172613 85 0 0.0 0.0 0.00 0.00 0.00 78 1009.0
20260507171048 86 0 0.0 0.0 0.00 0.00 0.00 78 1009.0
20260507165524 86 0 0.0 0.0 0.00 0.00 0.00 78 1009.0
20260507164000 86 0 0.0 0.0 0.00 0.00 0.00 77 1010.0
20260507162435 86 0 0.0 0.0 0.00 0.00 0.00 77 1010.0
20260507160910 86 0 0.0 0.0 0.00 0.00 0.00 77 1010.0
20260507155346 86 0 0.0 0.0 0.00 0.00 0.00 77 1010.0
20260507153822 86 0 0.0 0.0 0.00 0.00 0.00 75 1010.0
20260507152257 86 0 0.0 0.0 0.00 0.00 0.00 75 1010.0
20260507150732 86 0 0.0 0.0 0.00 0.00 0.00 75 1010.0
20260507145208 86 0 0.0 0.0 0.00 0.00 0.00 74 1010.0
20260507143644 86 0 0.0 0.0 0.00 0.00 0.00 74 1010.0
20260507142119 86 0 0.0 0.0 0.00 0.00 0.00 73 1010.0
20260507140554 86 0 0.0 0.0 0.00 0.00 0.00 73 1010.0
20260507135030 87 0 0.0 0.0 0.00 0.00 0.00 73 1009.0
20260507133506 87 0 0.0 0.0 0.00 0.00 0.00 72 1009.0
20260507131941 87 0 0.0 0.0 0.00 0.00 0.00 71 1009.0
20260507130417 87 0 0.0 0.0 0.00 0.00 0.00 71 1009.0
20260507124852 87 0 0.0 0.0 0.00 0.00 0.00 72 1008.0
20260507123327 87 0 0.0 0.0 0.00 0.00 0.00 73 1008.0
20260507121803 88 0 0.0 0.0 0.00 0.00 0.00 73 1008.0
20260507120238 88 0 0.0 0.0 0.00 0.00 0.00 72 1007.0
20260507114714 88 0 0.0 0.0 0.00 0.00 0.00 72 1007.0
20260507113149 88 0 0.0 0.0 0.00 0.00 0.00 74 1007.0
20260507111625 88 0 0.0 0.0 0.00 0.00 0.00 72 1007.0
20260507110100 89 0 0.0 0.0 0.00 0.00 0.00 70 1007.0
20260507104536 89 0 0.0 0.0 0.00 0.00 0.00 67 1007.0
20260507103011 90 0 0.0 0.0 0.00 0.00 0.00 65 1007.0
20260507101447 90 0 0.0 0.0 0.00 0.00 0.00 64 1007.0